Hourly Weather Roundup
Issued by NWS Central Illinois

Home | Current Version | Previous Version | Text Only | Print | Product List | Glossary On
Versions: 1 2 3 4 5 6 7 8 9 10 11 12 13 14 15 16 17 18 19 20 21 22 23 24 25 26 27 28 29 30 31 32 33 34 35 36 37 38 39 40 41 42 43 44 45 46 47 48 49 50
000
NZUS43 KILX 062010
HWRILX

AREA WEATHER ROUNDUP
NATIONAL WEATHER SERVICE, LINCOLN IL
300 PM CDT MON JUL 06 2015


CITY           SKY/WX    TMP DP  RH WIND       PRES   REMARKS
BLOOMINGTON    CLOUDY    85  77  77 SW17      29.94F HX  95
CHAMPAIGN      PTSUNNY   86  73  65 S12G20    29.96F HX  93
DANVILLE       PTSUNNY   84  74  70 SW10G16   29.95S HAZE    HX  91
DECATUR        PTSUNNY   85  74  69 S14G25    29.95F HX  92
EFFINGHAM      PTSUNNY   85  70  60 S10G16    29.99F HX  90
FLORA          MOSUNNY   84  74  72 S12       30.00R HX  90
GALESBURG      CLOUDY    83  74  74 S12       29.89F HX  89
JACKSONVILLE   CLOUDY    87  76  69 SW7       29.92S HX  98
LACON          CLOUDY    83  75  76 S6        29.89F HX  91
LAWRENCEVILLE  MOSUNNY   85  74  69 S14       30.00F HX  92
LITCHFIELD     PTSUNNY   76  68  76 SW25G32   29.98R
$$


CITY           SKY/WX    TMP DP  RH WIND       PRES   REMARKS
LINCOLN        CLOUDY    87  75  66 S7        29.92S HX  96
MACOMB         CLOUDY    84  74  73 SW12      29.92F HX  91
MATTOON        MOSUNNY   84  73  69 S10       29.97F HX  90
MT CARMEL AP   PTSUNNY   86  72  62 S12       30.00F HX  92
OLNEY-NOBLE AP CLOUDY    82  75  78 S10       30.00S HX  89
PARIS          MOSUNNY   84  72  66 S12       29.99F HX  90
PEORIA         CLOUDY    87  75  67 SW10      29.90F HX  96
PONTIAC        CLOUDY    86  78  75 S9G17     29.93S HX  99
RANTOUL        PTSUNNY   87  74  66 S9G17     29.95F HX  95
ROBINSON       MOSUNNY   86  72  61 SW7       30.00F HX  92
SPRINGFIELD    CLOUDY    88  76  67 S9        29.92F HX  99
TAYLORVILLE    PTSUNNY   82  75  78 S10       29.95F HX  89
$$

...REGIONAL REPORTS...


CITY           SKY/WX    TMP DP  RH WIND       PRES   REMARKS
CHICAGO O`HARE LGT RAIN  73  69  87 VRB3      29.91F
KANKAKEE       CLOUDY    85  73  65 S12G18    29.94F HX  91
MOLINE         CLOUDY    81  73  76 CALM      29.87F HX  86
MOUNT STERLING NOT AVBL
MOUNT VERNON   CLOUDY    86  73  66 S12       30.01S HX  93
PITTSFIELD     CLOUDY    86  75  69 S10G16    29.93F HX  94
QUINCY         PTSUNNY   87  74  64 S13       29.89F HX  95
ROCKFORD       LGT RAIN  76  71  85 S7        29.90R
$$


CITY           SKY/WX    TMP DP  RH WIND       PRES   REMARKS
BURLINGTON     CLOUDY    85  76  74 S14       29.87F HX  94
CEDAR RAPIDS   CLOUDY    78  75  90 S10       29.85F HX  81
DES MOINES     LGT RAIN  75  69  81 NW8       29.88S
KIRKSVILLE     PTSUNNY   89  76  65 SW9       29.89F HX 100
OTTUMWA        LGT RAIN  81  76  84 SW8       29.84F HX  87
ST LOUIS       CLOUDY    81  72  74 SE5       29.96F HX  85
$$


CITY           SKY/WX    TMP DP  RH WIND       PRES   REMARKS
TERRE HAUTE    MOSUNNY   86  71  60 S12       29.99F HX  91
EVANSVILLE     PTSUNNY   87  73  62 SW15      30.02F HX  94
INDIANAPOLIS   MOSUNNY   83  65  54 S12       30.00F HX  85
LAFAYETTE      MOSUNNY   84  69  60 S8        29.97F HX  88
MADISON        CLOUDY    78  70  76 SW8       29.85R HX  80
MILWAUKEE      CLOUDY    77  70  79 S9        29.87F
$$




USA.gov is the U.S. government's official web portal to all federal, state and local government web resources and services.